TimeCDT,TemperatureF,Dew PointF,Humidity,Sea Level PressureIn,VisibilityMPH,Wind Direction,Wind SpeedMPH,Gust SpeedMPH,PrecipitationIn,Events,Conditions,WindDirDegrees,DateUTC
12:15 AM,59.2,49.6,71,30.03,10.0,SE,5.8,-,N/A,,Clear,140,2014-03-15 05:15:00
12:35 AM,59.0,49.6,71,30.03,10.0,SE,5.8,-,N/A,,Clear,140,2014-03-15 05:35:00
12:55 AM,59.2,49.8,71,30.02,10.0,SE,4.6,-,N/A,,Clear,140,2014-03-15 05:55:00
1:15 AM,59.0,49.6,71,30.02,10.0,SSE,5.8,-,N/A,,Scattered Clouds,150,2014-03-15 06:15:00
1:35 AM,59.0,49.6,71,30.01,10.0,SE,6.9,-,N/A,,Scattered Clouds,140,2014-03-15 06:35:00
1:55 AM,59.2,50.0,72,30.01,10.0,SE,5.8,-,N/A,,Scattered Clouds,140,2014-03-15 06:55:00
2:15 AM,59.0,50.0,72,30.01,10.0,SSE,4.6,-,N/A,,Scattered Clouds,150,2014-03-15 07:15:00
2:35 AM,59.0,50.2,73,30.01,10.0,SSE,6.9,-,N/A,,Scattered Clouds,160,2014-03-15 07:35:00
2:55 AM,59.9,50.9,72,30.01,10.0,SSE,8.1,-,N/A,,Mostly Cloudy,150,2014-03-15 07:55:00
3:15 AM,59.7,51.1,73,30.00,10.0,SSE,5.8,-,N/A,,Scattered Clouds,150,2014-03-15 08:15:00
3:35 AM,59.0,51.1,75,29.99,10.0,SE,5.8,-,N/A,,Clear,140,2014-03-15 08:35:00
3:55 AM,59.2,51.4,75,29.99,10.0,SSE,4.6,-,N/A,,Mostly Cloudy,150,2014-03-15 08:55:00
4:15 AM,58.8,51.8,77,29.99,10.0,SE,4.6,-,N/A,,Mostly Cloudy,140,2014-03-15 09:15:00
4:35 AM,58.8,52.0,78,29.99,10.0,SE,5.8,-,N/A,,Scattered Clouds,140,2014-03-15 09:35:00
4:55 AM,58.1,51.8,80,29.98,10.0,SE,5.8,-,N/A,,Scattered Clouds,140,2014-03-15 09:55:00
5:15 AM,58.1,52.0,80,29.98,10.0,SE,4.6,-,N/A,,Mostly Cloudy,140,2014-03-15 10:15:00
5:35 AM,58.3,52.3,81,29.98,10.0,SSE,6.9,-,N/A,,Mostly Cloudy,160,2014-03-15 10:35:00
5:55 AM,58.1,52.5,82,29.97,10.0,SSE,8.1,-,N/A,,Clear,150,2014-03-15 10:55:00
6:15 AM,58.6,52.7,81,29.97,10.0,SSE,8.1,-,N/A,,Clear,160,2014-03-15 11:15:00
6:35 AM,58.6,53.1,82,29.97,10.0,SSE,8.1,-,N/A,,Scattered Clouds,150,2014-03-15 11:35:00
6:55 AM,58.1,52.9,83,29.98,10.0,SSE,6.9,-,N/A,,Scattered Clouds,160,2014-03-15 11:55:00
7:15 AM,58.8,53.4,82,29.98,10.0,SSE,5.8,-,N/A,,Mostly Cloudy,160,2014-03-15 12:15:00
7:35 AM,58.3,53.6,84,29.99,10.0,SSE,5.8,-,N/A,,Mostly Cloudy,150,2014-03-15 12:35:00
7:55 AM,58.3,53.8,85,29.99,10.0,SSE,6.9,-,N/A,,Mostly Cloudy,150,2014-03-15 12:55:00
8:15 AM,58.8,54.5,86,29.99,10.0,SSE,4.6,-,N/A,,Overcast,160,2014-03-15 13:15:00
8:35 AM,59.4,55.0,86,29.99,10.0,SSE,5.8,-,N/A,,Overcast,150,2014-03-15 13:35:00
8:55 AM,59.9,55.6,86,29.99,7.0,SE,5.8,-,N/A,,Overcast,140,2014-03-15 13:55:00
9:15 AM,60.4,56.3,86,29.99,7.0,SSE,4.6,-,N/A,,Overcast,150,2014-03-15 14:15:00
9:35 AM,61.0,56.7,86,30.00,7.0,SSE,4.6,-,N/A,,Overcast,150,2014-03-15 14:35:00
9:55 AM,61.2,57.2,87,30.00,7.0,South,3.5,-,N/A,,Overcast,180,2014-03-15 14:55:00
10:15 AM,61.5,57.7,87,30.00,5.0,South,6.9,-,N/A,,Overcast,180,2014-03-15 15:15:00
10:35 AM,61.7,58.1,88,30.00,5.0,South,3.5,-,N/A,Rain,Light Rain,170,2014-03-15 15:35:00
10:55 AM,61.9,59.0,90,29.99,5.0,SSE,3.5,-,N/A,,Overcast,150,2014-03-15 15:55:00
11:15 AM,62.6,59.0,88,29.99,5.0,South,4.6,-,N/A,,Overcast,180,2014-03-15 16:15:00
11:35 AM,63.3,59.9,89,29.98,5.0,South,6.9,-,N/A,,Light Drizzle,170,2014-03-15 16:35:00
11:55 AM,63.7,59.4,86,29.97,5.0,SSE,8.1,-,N/A,,Haze,160,2014-03-15 16:55:00
12:15 PM,63.9,59.4,85,29.96,5.0,SSE,9.2,-,N/A,,Overcast,160,2014-03-15 17:15:00
12:35 PM,64.4,59.5,84,29.94,5.0,SSE,10.4,-,N/A,,Overcast,160,2014-03-15 17:35:00
12:55 PM,65.3,59.5,82,29.93,7.0,South,9.2,-,N/A,,Overcast,170,2014-03-15 17:55:00
1:15 PM,65.3,59.7,82,29.91,7.0,SSE,9.2,-,N/A,,Overcast,160,2014-03-15 18:15:00
1:35 PM,65.5,59.7,82,29.91,7.0,SSE,10.4,-,N/A,,Overcast,160,2014-03-15 18:35:00
1:55 PM,65.7,59.7,81,29.89,7.0,SSE,9.2,-,N/A,,Overcast,150,2014-03-15 18:55:00
2:15 PM,65.8,59.9,81,29.87,7.0,South,8.1,-,N/A,,Overcast,170,2014-03-15 19:15:00
2:35 PM,66.0,59.9,81,29.85,7.0,SE,6.9,-,N/A,,Overcast,130,2014-03-15 19:35:00
2:50 PM,66.0,59.9,81,29.84,7.0,SSE,12.7,-,N/A,,Mostly Cloudy,160,2014-03-15 19:50:00
4:55 PM,64.2,62.2,93,29.76,5.0,ESE,8.1,-,0.01,,Overcast,120,2014-03-15 21:55:00
5:15 PM,63.9,62.1,94,29.75,5.0,ESE,8.1,-,N/A,,Mostly Cloudy,110,2014-03-15 22:15:00
5:35 PM,63.9,62.2,94,29.75,5.0,ESE,6.9,-,N/A,,Mostly Cloudy,110,2014-03-15 22:35:00
5:55 PM,63.5,62.1,95,29.73,4.0,East,8.1,-,N/A,Rain,Light Rain,100,2014-03-15 22:55:00
6:15 PM,63.5,62.1,95,29.74,1.5,SE,9.2,-,0.16,Rain-Thunderstorm,Heavy Thunderstorms and Rain,130,2014-03-15 23:15:00
6:35 PM,63.1,61.9,96,29.72,4.0,SE,10.4,17.3,0.20,Rain-Thunderstorm,Rain,140,2014-03-15 23:35:00
6:55 PM,62.8,61.3,95,29.74,7.0,South,8.1,-,0.20,Rain-Thunderstorm,Rain,170,2014-03-15 23:55:00
7:15 PM,62.6,61.0,94,29.73,7.0,SSW,4.6,10.4,0.01,Rain-Thunderstorm,Light Thunderstorms and Rain,200,2014-03-16 00:15:00
7:35 PM,62.6,61.0,94,29.74,4.0,South,6.9,-,0.10,Rain-Thunderstorm,Heavy Thunderstorms and Rain,180,2014-03-16 00:35:00
7:55 PM,62.6,60.8,94,29.71,5.0,SSE,11.5,16.1,0.17,Rain-Thunderstorm,Thunderstorms and Rain,160,2014-03-16 00:55:00
8:15 PM,62.6,60.8,94,29.78,7.0,West,31.1,47.2,0.04,Rain-Thunderstorm,Thunderstorms and Rain,270,2014-03-16 01:15:00
8:35 PM,56.7,55.4,96,29.78,3.0,West,9.2,-,0.43,Rain-Thunderstorm,Heavy Thunderstorms and Rain,260,2014-03-16 01:35:00
8:55 PM,56.8,55.4,95,29.79,7.0,West,4.6,-,0.55,Rain-Thunderstorm,Thunderstorms and Rain,260,2014-03-16 01:55:00
9:15 PM,57.6,55.4,92,29.78,10.0,NNW,10.4,-,0.02,Rain-Thunderstorm,Rain,330,2014-03-16 02:15:00
9:35 PM,57.4,54.5,90,29.76,7.0,NNW,10.4,19.6,0.05,Rain,Rain,340,2014-03-16 02:35:00
9:55 PM,56.8,54.1,91,29.73,10.0,North,8.1,-,0.07,Rain,Light Rain,360,2014-03-16 02:55:00
10:15 PM,56.7,53.8,90,29.76,10.0,Calm,Calm,-,N/A,Rain,Light Rain,0,2014-03-16 03:15:00
10:35 PM,56.3,54.1,92,29.79,10.0,West,6.9,-,0.01,Rain,Light Rain,260,2014-03-16 03:35:00
10:55 PM,56.3,54.5,94,29.77,10.0,WSW,4.6,-,0.01,,Scattered Clouds,240,2014-03-16 03:55:00
11:15 PM,56.1,54.1,93,29.76,10.0,NW,3.5,-,N/A,,Clear,310,2014-03-16 04:15:00
11:35 PM,55.9,53.6,92,29.76,10.0,NW,3.5,-,N/A,,Clear,320,2014-03-16 04:35:00
11:55 PM,55.4,53.4,93,29.75,10.0,Calm,Calm,-,N/A,,Clear,0,2014-03-16 04:55:00